CDT,Max TemperatureF,Mean TemperatureF,Min TemperatureF,Max Dew PointF,MeanDew PointF,Min DewpointF,Max Humidity, Mean Humidity, Min Humidity, Max Sea Level PressureIn, Mean Sea Level PressureIn, Min Sea Level PressureIn, Max VisibilityMiles, Mean VisibilityMiles, Min VisibilityMiles, Max Wind SpeedMPH, Mean Wind SpeedMPH, Max Gust SpeedMPH,PrecipitationIn, CloudCover, Events, WindDirDegrees
2013-7-1,75,70,65,67,65,63,93,89,84,29.90,29.86,29.81,10,8,2,13,5,24,0.24,7,Rain-Thunderstorm,6
2013-7-2,79,71,63,66,64,60,93,77,60,30.02,29.94,29.88,10,8,4,15,6,20,0.02,6,Rain,165
2013-7-3,81,72,63,65,63,60,93,74,54,30.11,30.07,30.01,10,10,6,10,4,15,0.00,5,,211
2013-7-4,80,72,63,70,66,62,93,81,69,30.12,30.09,30.05,10,7,2,12,4,15,0.00,2,,109
2013-7-5,81,74,66,69,66,64,93,78,62,30.13,30.09,30.04,10,10,9,15,3,22,0.00,6,,121
2013-7-6,82,74,66,70,66,63,93,74,55,30.12,30.08,30.03,10,10,9,15,5,18,0.09,5,Rain,143
2013-7-7,87,77,66,70,67,64,93,71,48,30.12,30.08,30.04,10,10,10,9,4,13,0.00,3,,190
2013-7-8,90,80,69,72,70,68,97,75,52,30.14,30.10,30.05,10,10,6,14,5,17,0.00,0,,218
2013-7-9,92,84,76,75,73,71,85,69,52,30.09,30.04,29.98,10,10,10,15,7,22,T,1,,209
2013-7-10,87,82,76,75,72,69,87,72,57,30.02,29.95,29.89,10,10,10,14,5,18,0.03,3,Thunderstorm,254
2013-7-11,84,76,67,72,62,56,93,67,40,30.03,29.99,29.93,10,10,7,17,9,23,0.00,1,,13
2013-7-12,85,73,61,61,58,57,84,62,40,30.10,30.05,30.02,10,10,10,15,6,20,0.00,0,,43
2013-7-13,86,75,63,66,62,58,87,66,45,30.08,30.05,30.01,10,10,6,15,6,21,0.04,1,Rain-Thunderstorm,52
2013-7-14,90,78,66,72,67,63,93,72,50,30.17,30.12,30.07,10,10,10,12,5,15,T,3,,92
2013-7-15,89,82,75,72,71,69,87,71,55,30.27,30.23,30.17,10,10,10,13,5,17,0.00,4,,131
2013-7-16,93,83,72,73,71,68,93,69,44,30.32,30.28,30.25,10,10,8,8,1,14,0.00,2,,75
2013-7-17,96,85,73,74,72,70,94,69,43,30.33,30.26,30.19,10,8,3,9,2,21,0.00,1,,13
2013-7-18,95,85,75,75,72,68,94,69,43,30.20,30.13,30.04,10,8,4,10,2,15,0.00,1,Rain-Thunderstorm,210
2013-7-19,91,82,73,73,71,69,88,70,52,30.05,29.99,29.92,10,9,4,15,6,24,0.00,1,,217
2013-7-20,91,82,72,73,70,66,93,73,52,29.95,29.91,29.83,10,9,2,25,7,33,0.09,3,Rain,233
2013-7-21,89,79,69,73,70,67,97,72,47,29.97,29.92,29.86,10,8,0,15,3,21,1.49,5,Fog-Rain-Thunderstorm,130
2013-7-22,88,80,71,72,70,68,100,77,53,29.88,29.85,29.81,10,8,2,15,5,21,0.29,6,Rain,247
2013-7-23,92,82,71,75,71,65,94,75,56,29.87,29.82,29.75,10,10,9,14,7,17,T,2,Rain-Thunderstorm,242
2013-7-24,81,73,65,68,59,57,84,65,45,30.00,29.94,29.86,10,10,10,15,8,21,0.00,1,,5
2013-7-25,82,72,61,60,57,54,93,68,42,30.09,30.05,29.99,10,10,10,13,4,17,0.00,0,,13
2013-7-26,83,71,59,66,61,57,97,71,45,30.08,30.04,29.99,10,10,9,13,4,20,0.02,2,Rain,253
2013-7-27,80,70,59,66,61,51,93,69,45,30.00,29.96,29.90,10,6,1,17,7,22,0.58,6,Rain,278
2013-7-28,78,66,53,58,53,50,93,67,41,30.07,30.03,29.99,10,10,10,13,3,23,0.00,1,,277
2013-7-29,81,70,58,65,60,56,93,68,42,30.17,30.14,30.08,10,10,10,10,3,15,0.00,0,,264
2013-7-30,74,71,68,68,65,61,97,81,64,30.18,30.14,30.07,10,6,0,10,4,16,0.70,6,Fog-Rain,134
2013-7-31,81,75,69,70,68,66,97,83,69,30.07,30.02,29.95,10,6,2,10,3,13,T,7,Rain,120